This is the latest recevied weather packets stored in our database for station/object K4CRS-13. If no packets are shown the sender has not sent any weather packets the latest 10 day(s).
| Time | Temp. | Humidity | Pressure | Rain* | Wind** | Luminosity | Snow |
|---|---|---|---|---|---|---|---|
| 1787445320 | 27.78° C | 82% | 1049.2 hPa | 0 mm | - | 0 W/m² | - |
| 1787445015 | 27.78° C | 80% | 1049.3 hPa | 0 mm | - | 0 W/m² | - |
| 1787444712 | 28.33° C | 80% | 1049.7 hPa | 0 mm | - | 1 W/m² | - |
| 1787444408 | 28.33° C | 80% | 1049.8 hPa | 0 mm | - | 1 W/m² | - |
| 1787444103 | 28.33° C | 79% | 1049.7 hPa | 0 mm | - | 2 W/m² | - |
| 1787443801 | 28.33° C | 78% | 1049.9 hPa | 0 mm | - | 3 W/m² | - |
| 1787443496 | 28.89° C | 77% | 1050.1 hPa | 0 mm | - | 5 W/m² | - |
| 1787443196 | 29.44° C | 77% | 1049.8 hPa | 0 mm | - | 8 W/m² | - |
| 1787442891 | 29.44° C | 75% | 1049.9 hPa | 0 mm | - | 11 W/m² | - |
| 1787442588 | 29.44° C | 74% | 1050 hPa | 0 mm | - | 15 W/m² | - |
| 1787442283 | 30° C | 74% | 1050.1 hPa | 0 mm | - | 22 W/m² | - |
| 1787441978 | 30° C | 74% | 1049.5 hPa | 0 mm | - | 27 W/m² | - |
| 1787441673 | 30.56° C | 70% | 1049.8 hPa | 0 mm | - | 35 W/m² | - |
| 1787441368 | 30.56° C | 69% | 1049.4 hPa | 0 mm | - | 41 W/m² | - |
| 1787441064 | 31.11° C | 69% | 1049.3 hPa | 0 mm | - | 48 W/m² | - |
| 1787440760 | 31.11° C | 67% | 1049.7 hPa | 0 mm | - | 54 W/m² | - |
| 1787440454 | 31.67° C | 66% | 1049.5 hPa | 0 mm | - | 60 W/m² | - |
| 1787440152 | 31.67° C | 66% | 1049.4 hPa | 0 mm | - | 67 W/m² | - |
| 1787439851 | 31.67° C | 66% | 1049.7 hPa | 0 mm | - | 75 W/m² | - |
| 1787439547 | 31.67° C | 67% | 1049.9 hPa | 0 mm | - | 92 W/m² | - |
| 1787439244 | 31.67° C | 65% | 1049.8 hPa | 0 mm | - | 92 W/m² | - |
| 1787438934 | 32.22° C | 63% | 1050.2 hPa | 0 mm | - | 90 W/m² | - |
| 1787438633 | 32.78° C | 61% | 1049.9 hPa | 0 mm | - | 93 W/m² | - |
| 1787438328 | 32.78° C | 59% | 1049.5 hPa | 0 mm | - | 108 W/m² | - |
| 1787438027 | 32.78° C | 57% | 1049.8 hPa | 0 mm | - | 129 W/m² | - |
* Rain latest hour (hover to see other rain measurements)
** Current wind speed in m/s (hover to see current wind gust speed)